[Iaude] MPEC G112: 2024 GS1 [a=1.51,e=0.29,i=33.8,H=24.3]

mpec at cfa.harvard.edu mpec at cfa.harvard.edu
Tue Apr 9 07:56:13 EDT 2024


M.P.E.C. 2024-G112                                Issued 2024 April 9, 11:54 UT

     The Minor Planet Electronic Circulars contain information on unusual
         minor planets, routine data on comets and natural satellites,
         and occasional editorial announcements.  They are published
    on behalf of Division F of the International Astronomical Union by the
          Minor Planet Center, Smithsonian Astrophysical Observatory,
                          Cambridge, MA 02138, U.S.A.
			  
             Prepared using the Tamkin Foundation Computer Network

                              MPC at CFA.HARVARD.EDU
            URL https://www.minorplanetcenter.net/    ISSN 1523-6714

                                    2024 GS1                                    


Observations:
     K24G01S* C2024 04 04.34310112 31 24.539+26 21 25.31         22.20GVEG112V00
     K24G01S  C2024 04 04.34810912 31 25.050+26 22 03.11         21.92GVEG112V00
     K24G01S  C2024 04 04.35308612 31 25.583+26 22 40.80         22.60GVEG112V00
     K24G01S  C2024 04 04.35807212 31 26.080+26 23 18.38         21.83GVEG112V00
     K24G01S KC2024 04 04.39740 12 31 30.37 +26 28 16.9          22.1 RVEG112291
     K24G01S KC2024 04 04.41195 12 31 31.97 +26 30 06.7          21.9 RVEG112291
     K24G01S KC2024 04 04.42675 12 31 33.61 +26 31 57.8          21.8 RVEG112291
     K24G01S 7C2024 04 05.09583312 32 55.467+27 54 03.36         22.1 GVEG112Z84
     K24G01S 7C2024 04 05.12560912 32 58.637+27 57 34.03         21.3 GVEG112Z84
     K24G01S 7C2024 04 05.15525012 33 01.930+28 01 02.54         22.4 GVEG112Z84
     K24G01S KC2024 04 06.18729512 35 06.13 +29 57 41.8          22.0 GVEG112H21
     K24G01S KC2024 04 06.19307612 35 06.70 +29 58 19.3          21.8 GVEG112H21
     K24G01S KC2024 04 06.19596512 35 06.97 +29 58 38.1          22.1 GVEG112H21
     K24G01S KC2024 04 07.13893 12 36 55.50 +31 35 44.3                VEG112291
     K24G01S KC2024 04 07.14491 12 36 56.12 +31 36 19.8          22.1 RVEG112291
     K24G01S KC2024 04 07.15093 12 36 56.68 +31 36 55.8          22.7 RVEG112291
     K24G01S KC2024 04 08.19985 12 38 50.53 +33 15 23.5          22.3 RVEG112291
     K24G01S KC2024 04 08.22074 12 38 52.45 +33 17 16.6          22.4 RVEG112291
     K24G01S KC2024 04 08.23801 12 38 54.04 +33 18 49.6          22.6 RVEG112291

Observer details:
291 LPL/Spacewatch II.  Observers T. H. Bressi, C. Lejoly.  1.8-m f/2.7
    reflector + CCD.
H21 Astronomical Research Observatory, Westfield.  Observer R. Holmes.
    Measurers T. Linder, R. Holmes, L. Horn.  1.3-m f/4.0 astrograph + CCD.
V00 Kitt Peak-Bok.  Observers V. F. Carvajal, K. W. Wierzchos.  Measurers M.
    J. Brucker, C. E. Woodward, T. Beuden, V. F. Carvajal, D. Fay, J. B.
    Fazekas, D. C. Fuls, A. R. Gibbs, H. Groeller, J. K. Hogan, R. A.
    Kowalski, S. M. Larson, C. Lejoly, G. J. Leonard, R. A. Mastaler, R. S.
    McMillan, D. Rankin, R. L. Seaman, F. C. Shelly, K. W. Wierzchos.  2.25-m
    reflector + 4x4K mosaic CCD.
Z84 Calar Alto-Schmidt.  Observers F. Ocana, R. Kresken, M. Micheli, L.
    Conversi.  Measurers F. Ocana, M. Micheli.  0.8-m f/3 Schmidt + CCD.

Orbital elements:
2024 GS1                                                 Earth MOID = 0.1352 AU
Epoch 2024 Mar. 31.0 TT = JDT 2460400.5                 Veres                   
M  25.69355              (2000.0)            P               Q                  
n   0.52986255     Peri.  317.25400     -0.78576773     -0.61615766             
a   1.5124948      Node   185.58032     +0.59981395     -0.78040909             
e   0.2929635      Incl.   33.75128     -0.15097115     +0.10635503             
P   1.86           H   24.30          G   0.15           U   9                  
Residuals in seconds of arc
240404 V00  0.2+  0.3+    240405 Z84  0.1+  0.2-    240407 291  0.4+  0.0
240404 V00  0.1-  0.1-    240405 Z84  0.3-  0.2+    240407 291  0.1-  0.1-
240404 V00  0.1-  0.2-    240405 Z84  0.2+  0.4+    240408 291  0.3+  0.1-
240404 V00 (0.5-  0.6-)   240406 H21  0.1+  0.1-    240408 291  0.2+  0.0
240404 291  0.3+  0.2+    240406 H21  0.0   0.0     240408 291  0.3+  0.0
240404 291  0.5+  0.3+    240406 H21  0.2-  0.0
240404 291  0.6+  0.1+    240407 291  0.3+  0.4+

Ephemeris:
2024 GS1                 a,e,i = 1.51, 0.29, 34                  q = 1.0694
Date    TT    R. A. (2000) Decl.     Delta      r    Elong.  Phase     V
2024 03 10    11 02 15.8 -58 00 42   0.1944  1.0972   117.7    53.2    22.9
...
2024 03 25    12 04 58.3 -07 22 19   0.1370  1.1335   173.7     5.5    20.7
...
2024 04 02    12 26 21.8 +20 49 07   0.1734  1.1577   153.8    22.4    21.9
...
2024 04 08    12 38 27.5 +32 57 21   0.2211  1.1777   139.3    33.7    22.8
2024 04 09    12 40 13.5 +34 24 12   0.2300  1.1812   137.4    35.0    22.9
2024 04 10    12 41 56.0 +35 43 21   0.2390  1.1847   135.7    36.2    23.0
...
2024 04 16    12 51 08.9 +41 30 27   0.2963  1.2064   127.3    41.4    23.7
...
2024 04 24    13 01 29.2 +45 31 08   0.3769  1.2370   119.8    44.9    24.4
...
2024 05 09    13 18 05.9 +47 30 03   0.5314  1.2980   110.9    46.6    25.3

M. P. C. Staff               (C) Copyright 2024 MPC           M.P.E.C. 2024-G112





More information about the Iaude mailing list